Tracking 19199 objects as of 25-Jun-2018
HD Live streaming from Space Station
objects crossing your sky now

NAVSTAR 36 (USA 100)

Track NAVSTAR 36 (USA 100) now!
NAVSTAR 36 (USA 100) is classified as:


NORAD ID: 23027
Int'l Code: 1994-016A
Perigee: 19,835.4 km
Apogee: 20,543.1 km
Inclination: 54.9 °
Period: 718.0 minutes
Semi major axis: 26560 km
RCS: 2.0263 m2 (large)
Launch date: March 10, 1994
Source: United States (US)
Launch site: AIR FORCE EASTERN TEST RANGE (AFETR)
aabbcc
Your satellite tracking list
Your tracking list is empty




NASA's NSSDC Master Catalog

Two Line Element Set (TLE):
1 23027U 94016A   18175.92185581 -.00000086 +00000-0 +00000-0 0  9990
2 23027 054.9202 019.9667 0133225 030.0615 299.9530 02.00564484177990
Source of the keplerian elements: AFSPC